TimeCST,TemperatureF,Dew PointF,Humidity,Sea Level PressureIn,VisibilityMPH,Wind Direction,Wind SpeedMPH,Gust SpeedMPH,PrecipitationIn,Events,Conditions,WindDirDegrees,DateUTC
12:00 AM,73.4,71.6,94,29.81,0.5,SSE,6.9,-,N/A,Fog,Fog,160,2013-12-05 06:00:00
12:53 AM,73.0,71.1,93,29.80,0.8,SSE,10.4,-,N/A,,Mist,160,2013-12-05 06:53:00
1:10 AM,73.4,71.6,94,29.80,1.0,SSE,11.5,-,N/A,,Mist,160,2013-12-05 07:10:00
1:24 AM,73.4,71.6,94,29.80,0.8,SSE,10.4,-,N/A,,Mist,160,2013-12-05 07:24:00
1:53 AM,73.0,71.1,93,29.80,0.5,South,5.8,-,N/A,Fog,Fog,180,2013-12-05 07:53:00
2:14 AM,73.4,71.6,94,29.80,1.2,South,5.8,-,N/A,,Overcast,190,2013-12-05 08:14:00
2:26 AM,73.4,71.6,94,29.79,2.5,South,5.8,-,N/A,,Overcast,190,2013-12-05 08:26:00
2:33 AM,73.4,71.6,94,29.79,3.0,South,6.9,-,N/A,,Overcast,180,2013-12-05 08:33:00
2:53 AM,73.0,71.1,93,29.79,3.0,South,5.8,-,N/A,,Overcast,180,2013-12-05 08:53:00
3:20 AM,73.4,71.6,94,29.78,2.5,South,10.4,-,N/A,,Overcast,180,2013-12-05 09:20:00
3:31 AM,73.4,71.6,94,29.78,3.0,South,12.7,-,N/A,,Overcast,180,2013-12-05 09:31:00
3:45 AM,73.4,71.6,94,29.79,2.5,South,6.9,-,N/A,,Overcast,180,2013-12-05 09:45:00
3:53 AM,73.0,71.1,93,29.79,3.0,South,6.9,-,N/A,,Overcast,190,2013-12-05 09:53:00
4:53 AM,73.0,70.0,90,29.80,4.0,South,9.2,-,N/A,,Overcast,180,2013-12-05 10:53:00
5:53 AM,72.0,69.1,91,29.80,4.0,South,5.8,-,N/A,,Overcast,180,2013-12-05 11:53:00
6:53 AM,72.0,68.0,87,29.81,4.0,South,5.8,-,N/A,,Mostly Cloudy,190,2013-12-05 12:53:00
7:53 AM,73.0,69.1,87,29.84,3.0,South,4.6,-,N/A,,Overcast,170,2013-12-05 13:53:00
8:53 AM,75.9,70.0,82,29.85,5.0,South,6.9,-,N/A,,Haze,180,2013-12-05 14:53:00
9:53 AM,78.1,70.0,76,29.86,5.0,South,11.5,-,N/A,,Haze,190,2013-12-05 15:53:00
10:28 AM,78.8,69.8,74,29.86,6.0,South,12.7,-,N/A,,Haze,170,2013-12-05 16:28:00
10:53 AM,79.0,70.0,74,29.85,6.0,South,18.4,-,N/A,,Haze,180,2013-12-05 16:53:00
11:53 AM,79.0,70.0,74,29.84,6.0,South,13.8,19.6,N/A,,Haze,180,2013-12-05 17:53:00
12:43 PM,80.6,69.8,70,29.82,6.0,South,10.4,20.7,N/A,,Haze,190,2013-12-05 18:43:00
12:53 PM,80.1,70.0,71,29.81,7.0,South,10.4,19.6,N/A,,Overcast,180,2013-12-05 18:53:00
1:53 PM,81.0,70.0,69,29.78,7.0,South,13.8,-,N/A,,Overcast,170,2013-12-05 19:53:00
2:19 PM,82.4,69.8,66,29.77,7.0,South,13.8,19.6,N/A,,Overcast,170,2013-12-05 20:19:00
2:34 PM,82.4,69.8,66,29.76,7.0,SSE,13.8,-,N/A,,Overcast,160,2013-12-05 20:34:00
2:53 PM,82.9,70.0,65,29.75,7.0,SSE,17.3,-,N/A,,Overcast,160,2013-12-05 20:53:00
3:38 PM,80.6,71.6,74,29.74,7.0,SSE,17.3,-,N/A,,Mostly Cloudy,160,2013-12-05 21:38:00
3:53 PM,80.1,72.0,76,29.75,6.0,SSE,17.3,24.2,N/A,,Haze,160,2013-12-05 21:53:00
4:34 PM,78.8,71.6,78,29.76,6.0,South,12.7,-,N/A,,Haze,170,2013-12-05 22:34:00
4:53 PM,79.0,72.0,79,29.77,7.0,South,10.4,-,N/A,,Overcast,170,2013-12-05 22:53:00
5:53 PM,79.0,72.0,79,29.80,8.0,SSE,5.8,-,N/A,,Overcast,150,2013-12-05 23:53:00
6:53 PM,75.0,71.1,87,29.84,6.0,NE,8.1,-,N/A,,Overcast,50,2013-12-06 00:53:00
7:07 PM,75.2,71.6,89,29.84,6.0,NE,8.1,-,N/A,,Haze,50,2013-12-06 01:07:00
7:53 PM,75.9,71.1,85,29.86,6.0,NE,10.4,-,N/A,,Haze,40,2013-12-06 01:53:00
8:01 PM,75.2,71.6,89,29.86,6.0,NE,8.1,-,N/A,,Haze,50,2013-12-06 02:01:00
8:08 PM,75.2,71.6,89,29.86,6.0,NE,10.4,-,N/A,,Haze,50,2013-12-06 02:08:00
8:53 PM,75.0,71.1,87,29.87,6.0,NNE,11.5,-,N/A,,Overcast,30,2013-12-06 02:53:00
9:11 PM,73.4,69.8,88,29.87,5.0,NNE,10.4,-,N/A,,Overcast,20,2013-12-06 03:11:00
9:53 PM,69.1,64.9,87,29.89,4.0,North,19.6,26.5,N/A,,Overcast,10,2013-12-06 03:53:00
10:21 PM,64.4,62.6,94,29.89,4.0,North,21.9,28.8,N/A,,Overcast,10,2013-12-06 04:21:00
10:53 PM,63.0,60.1,90,29.91,5.0,North,20.7,27.6,0.00,Rain,Light Rain,360,2013-12-06 04:53:00
11:53 PM,61.0,57.9,90,29.92,6.0,North,16.1,-,0.00,,Overcast,10,2013-12-06 05:53:00